Skip Page Navigation
NASA JPL Caltech
NASA Logo - Jet Propulsion Laboratory + View the NASA Portal
+ Center for Near-Earth Object Studies
JPL Home Earth Solar System Stars & Galaxies Technology
JPL Solar System Dynamics
BODIES ORBITS EPHEMERIDES TOOLS PHYSICAL DATA DISCOVERY FAQ SITE MAP
JPL Small-Body Database Browser
Search: [ help ]  
150077 (2006 SE356)
Classification: Main-belt Asteroid          SPK-ID: 2150077
Ephemeris | Orbit Diagram | Orbital Elements | Mission Design | Physical Parameters | Discovery Circumstances | Close-Approach Data ]

[ show orbit diagram ]
Orbital Elements at Epoch 2459200.5 (2020-Dec-17.0) TDB
Reference: JPL 17 (heliocentric ecliptic J2000)
 Element Value Uncertainty (1-sigma)   Units 
e .03605492480436832 4.096e-08  
a 2.39325203658114 1.3488e-08 au
q 2.306963514364305 9.9277e-08 au
i 5.986332573929362 5.2452e-06 deg
node 44.64461850066107 4.386e-05 deg
peri 258.5020612521551 9.1339e-05 deg
M 20.82203974823619 8.1019e-05 deg
tp 2459122.282874220342
(2020-Sep-29.78287422)
0.00030432 TDB
period 1352.325018160734
3.70
1.1432e-05
3.13e-08
d
yr
n .2662081934190847 2.2504e-09 deg/d
Q 2.479540558797974 1.3974e-08 au
  Orbit Determination Parameters
   # obs. used (total)      474  
   data-arc span      10081 days (27.60 yr)  
   first obs. used      1991-10-01  
   last obs. used      2019-05-08  
   planetary ephem.      DE441  
   SB-pert. ephem.      SB441-N16  
   condition code      0  
   norm. resid. RMS      .61914  
   source      ORB  
   producer      Otto Matic  
   solution date      2021-Apr-13 19:17:01  

Additional Information
 Earth MOID = 1.29857 au 
 Jupiter MOID = 2.57709 au 
 T_jup = 3.522 
[ show covariance matrix ]

Ephemeris | Orbit Diagram | Orbital Elements | Mission Design | Physical Parameters | Discovery Circumstances | Close-Approach Data ]

Physical Parameter Table
Parameter Symbol Value Units Sigma Reference Notes
absolute magnitude H 16.3   n/a MPO436756  

150077 (2006 SE356)          Discovered 2006-Sep-30 by CSS at Catalina
Reference: 20070202/Numbers.arcLast Updated: 2007-02-06

[ show close-approach data ]
Ephemeris | Orbit Diagram | Orbital Elements | Mission Design | Physical Parameters | Discovery Circumstances | Close-Approach Data ]
ABOUT SSD CREDITS/AWARDS PRIVACY/COPYRIGHT GLOSSARY LINKS
FirstGov 2021-Apr-14 03:31 UT
(server date/time)  
NASA Home Page
Site Manager:   Ryan S. Park
Webmaster  Alan B. Chamberlin